Location: Lake Arresoe
(56.0000°N, 12.5000°E)
Time: 21:19:19
(UTC+01:00)

Cosmos 2058 - Pass Details

Date: 21 October 2019
Orbit: 563 x 583 km, 82.5° (Epoch: 11 November)

Event Time Altitude Azimuth Distance (km) Brightness Sun altitude
Rises 19:25:34 0° 350° (N) 2,825 6.6 -13.2°
Reaches altitude 10° 19:27:50 10° 356° (N) 1,920 5.6 -13.5°
Maximum altitude 19:31:58 50° 72° (ENE) 753 3.1 -14.1°
Drops below altitude 10° 19:36:04 10° 149° (SSE) 1,901 5.2 -14.7°
Enters shadow 19:36:42 - 151° (SSE) 2,149 5.5 -14.8°
